Tracking 18876 objects as of 15-Dec-2017
HD Live streaming from Space Station
objects crossing your sky now

GOES 7

Track GOES 7 now!
GOES 7 is classified as:


NORAD ID: 17561
Int'l Code: 1987-022A
Perigee: 35,868.1 km
Apogee: 35,929.5 km
Inclination: 15.1 °
Period: 1,441.5 minutes
Semi major axis: 42269 km
RCS: 10.3409 m2 (large)
Launch date: February 26, 1987
Source: United States (US)
Launch site: AIR FORCE EASTERN TEST RANGE (AFETR)
aabbcc
Your satellite tracking list
Your tracking list is empty




NASA's NSSDC Master Catalog

Two Line Element Set (TLE):
1 17561U 87022A   17348.37876104 -.00000284  00000-0  00000+0 0  9992
2 17561  15.1396   3.9357 0007256 296.5578 217.0161  0.99898186 95949
Source of the keplerian elements: AFSPC